1st Responders/1st Detectors/Storm Spotters Weather Summary for Bourbon County, KY

Forecast Maps


Reg. NEXRAD Animation


National Fire Danger: Day 1 & 2 Map

Current NWS Watch/Warnings

SPC Convective Day 1 Outlook


Day 2 Outlook

(Click images to enlarge|Page will refresh every 5 minutes)
UK Ag. Weather Center Desktop Severe Weather Service[HERE]
Bourbon County, KY Hazardous Weather Outlook Webcast
(9 AM to 9 PM Mon-Fri)
[Fast]
[Dial-up]


UKAWC 1st Detectors/1st Responders Precision Weather Forecast For BOURBON County, Kentucky
(based on the NWS County Digital Forecast)

ISSUED AT 14:00 UTC ON SUNDAY JUL 22 2018
DAY SUNDAY
EDT 3HR 11A NOON 1P 2P 3P 4P 5P 6P 7P
MAX/MIN -- -- -- -- -- -- -- -- 76°
TEMP 72° 72° 74° 74° 74° 76° 76° 74° 74°
SKY COVER 88% 85% 91% 90% 88% 77% 78% 74% 81%
Clouds
DEW PT 67° 67° 67° 68° 68° 68° 68° 68° 68°
RH 84% 84% 81% 81% 82% 79% 79% 81% 84%
POP 12HR -- -- -- -- -- -- -- -- --
RAIN/SNOW (liq.equ) -- -- -- 0.21in -- -- -- -- --
SNOWFALL -- -- -- 0in -- -- -- -- --
WIND SPEED(MPH) 7 6 7 5 6 6 6 6 6
WIND Gust(MPH) 10 7 8 7 7 7 7 7 7
WIND DIR W W W W W W W NW NW
DEW Mod Dew Mod Dew -- Lgt Dew Lgt Dew Lgt Dew Lgt Dew Lgt Dew Lgt Dew
HeatIndex 72 72 74 74 74 76 76 74 74
Rain Showers Chance Chance Chance Likely Likely Likely Likely Likely Likely
Thunder Storm Slight Chance Slight Chance Slight Chance Slight Chance Slight Chance Slight Chance Slight Chance Slight Chance Slight Chance
WIND CHILL -- -- -- -- -- -- -- -- --
SPRAY COND
DRY COND
LIVESTOCK HEATSTRESS 70.84 70.84 72.41 72.41 72.50 74.01 74.01 72.41 72.66



DAY MONDAY TUESDAY WEDNESDAY THURSDAY FRIDAY SATURDAY
EDT 6HR 8P 9P 10P 11P MIDN 1A 2A 3A 4A 5A 6A 7A 8A 9A 10A 11A NOON 1P 2P 3P 4P 5P 6P 7P 8P 9P 10P 11P 2A 5A 8A 11A 2P 5P 8P 2A 8A 2P 8P 2A 8A 2P 8P 2A 8A 2P 8P 2A 8A 2P 8P
MAX/MIN -- -- -- -- -- -- -- -- -- -- -- -- 65° -- -- -- -- -- -- -- -- -- -- 79° -- -- -- -- -- -- 65° -- -- 83° -- -- 67° 83° -- -- 65° 86° -- -- 65° 83° -- -- 63° 83° --
TEMP 72° 72° 70° 70° 70° 68° 67° 67° 65° 65° 65° 65° 65° 67° 68° 70° 72° 72° 74° 76° 77° 79° 79° 77° 76° 74° 70° 68° 67° 65° 67° 76° 81° 81° 79° 70° 67° 83° 79° 68° 68° 85° 79° 68° 68° 83° 76° 67° 65° 81° 77°
SKY COVER 81% 83% 86% 88% 89% 91% 92% 92% 92% 92% 92% 93% 93% 92% 92% 91% 89% 85% 83% 81% 76% 74% 74% 74% 74% 73% 70% 69% 75% 80% 74% 76% 75% 75% 75% 72% 72% 68% 52% 33% 25% 21% 29% 40% 51% 51% 46% 62% 54% 53% 56%
Clouds
DEW PT 68° 68° 67° 67° 67° 67° 65° 65° 65° 65° 65° 65° 65° 65° 67° 67° 67° 67° 67° 67° 67° 67° 67° 68° 68° 67° 67° 67° 67° 65° 67° 70° 72° 70° 70° 67° 67° 70° 70° 67° 67° 67° 68° 65° 65° 65° 65° 63° 63° 65° 65°
RH 87% 90% 90% 90% 90% 92% 93% 93% 96% 99% 100% 100% 99% 93% 93% 87% 84% 84% 78% 76% 70% 69% 69% 74% 78% 81% 90% 93% 100% 96% 100% 78% 71% 67% 76% 93% 100% 67% 74% 96% 97% 54% 69% 90% 90% 54% 71% 86% 93% 58% 67%
POP 12HR 63% -- -- -- -- -- -- -- -- -- -- -- 61% -- -- -- -- -- -- -- -- -- -- -- 56% -- -- -- -- -- 32% -- -- -- 62% -- 41% -- 48% -- 17% -- 9% -- 14% -- 26% -- 14% -- 26%
RAIN/SNOW (liq.equ) 0.30in -- -- -- -- -- 0.18in -- -- -- -- -- 0.01in -- -- -- -- -- 0.05in -- -- -- -- -- 0.04in -- -- -- 0.01in -- 0.01in -- 0.05in -- 0.16in -- -- -- -- -- -- -- -- -- -- -- -- -- -- -- --
SNOWFALL 0in -- -- -- -- -- 0in -- -- -- -- -- 0in -- -- -- -- -- 0in -- -- -- -- -- 0in -- -- -- 0in -- 0in -- 0in -- 0in -- -- -- -- -- -- -- -- -- -- -- -- -- -- -- --
WIND SPEED(MPH) 5 5 5 5 5 5 5 5 5 5 5 5 5 5 5 5 5 5 5 6 6 6 6 6 6 5 2 1 1 1 1 2 5 5 5 1 1 5 2 1 1 6 5 1 1 6 6 1 2 2 5
WIND DIR N N N N N NE NE NE NE N N N N N N N N N N N N N N N N N N N N N N N N N N NE N N N NW NW NW NW NE NE NW N NE NE N N
HeatIndex 72 72 70 70 70 68 67 67 65 65 65 65 65 67 68 70 72 72 74 76 77 79 79 77 76 74 70 68 67 65 67 76 86 85 79 70 67 87 79 68 68 89 82 68 68 86 76 67 65 84 77
Rain Showers Likely Likely Chance Chance Chance Chance Slight Chance Slight Chance Slight Chance Slight Chance Slight Chance Slight Chance Chance Chance Chance Chance Chance Chance Likely Likely Likely Likely Likely Likely Chance Chance Chance Chance Slight Chance Slight Chance Chance Chance Likely Likely Chance Slight Chance Chance Chance Slight Chance -- -- -- -- -- -- Chance -- -- -- Chance Chance
Thunder Storm Slight Chance Slight Chance Slight Chance -- -- -- -- -- -- -- -- -- Slight Chance Slight Chance Slight Chance Slight Chance Slight Chance Slight Chance Chance Chance Chance Chance Chance Chance -- -- -- -- -- -- Chance Chance Chance Chance Slight Chance Slight Chance Chance Chance -- -- -- -- -- -- -- Slight Chance -- -- -- Slight Chance --
WIND CHILL -- -- -- -- -- -- -- -- -- -- -- -- -- -- -- -- -- -- -- -- -- -- -- -- -- -- -- -- -- -- -- -- -- -- -- -- -- -- -- -- -- -- -- -- -- -- -- -- -- -- --
SPRAY COND
DRY COND
LIVESTOCK HEATSTRESS 71.06 71.27 69.38 69.38 69.38 67.60 66.68 66.68 64.86 64.97 65.00 65.00 64.97 66.68 67.65 69.20 70.84 70.84 72.16 73.73 74.00 75.56 75.56 74.40 73.92 72.41 69.38 67.65 67.00 64.86 67.00 73.92 77.46 76.97 76.33 69.57 67.00 78.61 76.11 67.80 67.85 78.37 75.56 67.49 67.49 76.88 73.26 66.37 64.76 75.87 73.70

Click on individual weather variable above in left-hand column (ie., TEMP, RH, QPF 12HR) to view state forecast maps






NWS 48 Hr. Forecast Maps,

Regional Hourly Observations For BOURBON County, Kentucky
Issued at 1000 AM EDT SUN JUL 22 2018
NORTHEAST KENTUCKY
  
CITY           SKY/WX    TMP DP  RH WIND       PRES   REMARKS
LEXINGTON      RAIN      68  66  93 W9        29.74R FOG              
COVINGTON      CLOUDY    70  68  93 N10       29.72R                  
FRANKFORT      CLOUDY    69  67  93 W6        29.72S FOG              


Current NOWCAST not available:
Nowcasts are not issued routinely during fair weather. Only when
precipitation or other significant weather is occuring in this county will these
forecasts be issued. Currently, there is no short term forecast in effect.


Fire Weather Forecast For BOURBON County, KY
Provided by the National Weather Service:

Issued at: Sun Jul 22 10:05:01 EDT 2018


                      Today        Tonight      Mon          

CLOUD COVER           MCldy        MCldy        MCldy        
PRECIP TYPE           tstms        tstms        tstms        
CHANCE PRECIP (%)     60           60           50           
TEMP (24H TREND)      76 (-4)      64 (-2)      80           
RH % (24H TREND)      74 (+7)      100 (0)      64           
20FTWND-VAL/AM(MPH)   W  6                      Lgt/Var      
20FTWND-RDG/PM(MPH)   W  5         Lgt/Var      Lgt/Var      
PRECIP AMOUNT         0.35         0.14         0.06         
MIXING HGT(FT-AGL/MSL)3269                      4302         
TRANSPORT WND (MPH)   NW  8                     N  7         
VENT RATE (KT-FT)     32760                     33266        
DISPERSION            Marginal                  Marginal     
DSI                   SLGT UNSTBL  SLGT UNSTBL  STBL         
LAL                   2            2            3            
HAINES INDEX          3            3            3            
ADI EARLY             16 GEN POOR  4 VERY POOR  9 POOR       
ADI LATE              19 GEN POOR  2 VERY POOR  19 GEN POOR  
MAX LVORI EARLY       7            7            9            
MAX LVORI LATE        4            9            4            

REMARKS...ADI IS ATMOSPHERIC DISPERSION INDEX BY LAVDAS.        
LVORI IS LOW VISIBILITY OCCURRENCE RISK INDEX.

.TUESDAY...Mostly cloudy with a 50 percent chance of showers and
thunderstorms. Lows in the mid 60s. Highs in the mid 80s. Light
winds. 
.WEDNESDAY...Mostly cloudy. A 50 percent chance of showers and
thunderstorms. Lows in the upper 60s. Highs in the mid 80s. North
winds up to 5 mph. 
.THURSDAY...Partly cloudy. Lows in the upper 60s. Highs in the
upper 80s. Northwest winds up to 5 mph. 
.FRIDAY...Partly cloudy. Lows in the mid 60s. Highs in the mid
80s. Northwest winds up to 5 mph. 
.SATURDAY...Mostly cloudy. Chance of showers. Lows in the mid
60s. Highs in the mid 80s. North winds up to 5 mph. 

SPC's Fire Weather Web Tool (Excellent!), SPC's Fire Weather Outlooks, NWS Fire Weather WEB, Fire Danger Class Map,
Keetch-Byram Drought Index, ROMAN Web, Haines Index ,
WFAS's 10-hr Dead Fuel Moist., WFAS's 100-hr Dead Fuel Moist., Probablity of Ignition, Visual blackness Map, Palmer Drought Index, HPC's Rainfall Forecast Maps


Hazardous Weather Outlook For BOURBON County, Kentucky
350 AM EDT Sun Jul 22 2018 /250 AM CDT Sun Jul 22 2018/

 DAY ONE  Today and Tonight.

No hazardous weather is expected. 

 DAYS TWO THROUGH SEVEN  Monday through Saturday.

Isolated to scattered afternoon and evening storms are expected each
day through the next work week as the weather pattern remains 
unsettled.

 SPOTTER INFORMATION STATEMENT  

Spotter activation is not anticipated.

Latest BOURBON County, Kentucky Watches, Warnings and Advisories.
Additional Drought Info.: UKAWC Drought Page, Kentucky Drought Watch


7-Day Forecast For BOURBON County, KY

TODAY
Cloudy. Chance of showers and slight chance of thunderstorms in the morning, then showers likely and slight chance of thunderstorms in the afternoon. Highs in the mid 70s. West winds 5 to 10 mph. Chance of precipitation 60 percent.

TONIGHT
Showers likely and slight chance of thunderstorms. Lows in the mid 60s. North winds around 5 mph. Chance of precipitation 60 percent.

MONDAY
Showers likely and chance of thunderstorms. Highs around 80. North winds around 5 mph. Chance of precipitation 60 percent.

MONDAY NIGHT
Mostly cloudy with chance of showers and slight chance of thunderstorms. Lows in the mid 60s. North winds up to 5 mph. Chance of precipitation 50 percent.

TUESDAY
Showers likely and chance of thunderstorms. Highs in the lower 80s. North winds up to 5 mph. Chance of precipitation 60 percent.

TUESDAY NIGHT
Mostly cloudy with chance of showers and slight chance of thunderstorms. Lows in the upper 60s. Chance of precipitation 50 percent.

WEDNESDAY
Partly cloudy with a 50 percent chance of showers and thunderstorms. Highs in the mid 80s.

WEDNESDAY NIGHT
Partly cloudy with a 20 percent chance of showers. Lows in the upper 60s.

THURSDAY
Mostly sunny. Highs in the upper 80s.

THURSDAY NIGHT
Partly cloudy. Lows in the mid 60s.

FRIDAY
Partly cloudy with chance of showers and slight chance of thunderstorms. Highs in the mid 80s. Chance of precipitation 30 percent.

FRIDAY NIGHT
Partly cloudy with a 20 percent chance of showers. Lows in the mid 60s.

SATURDAY
Partly cloudy with chance of showers and slight chance of thunderstorms. Highs in the lower 80s. Chance of precipitation 30 percent.

Ag Weather Center, Department of Biosystems & Agricultural Engineering, University of Kentucky